Regional Weather Roundup
Issued by NWS Green Bay, WI

Home | Current Version | Previous Version | Graphics & Text | Print | Product List | Glossary Off
Versions: 1 2 3 4 5 6 7 8 9 10 11 12 13 14 15 16 17 18 19 20 21 22 23 24 25 26 27 28 29 30 31 32 33 34 35 36 37 38 39 40 41 42 43 44 45 46 47 48 49 50

000
ASUS43 KGRB 301859
RWRGRB

NORTH-CENTRAL AND NORTHEAST WISCONSIN REGIONAL WEATHER ROUNDUP
NATIONAL WEATHER SERVICE GREEN BAY WI
200 PM CDT WED JUL 30 2014

WIZ005-009-010>012-018-019-302000-
NORTH CENTRAL WISCONSIN

CITY           SKY/WX    TMP DP  RH WIND       PRES   REMARKS
IRONWOOD       NOT AVBL
MANITOWISH WTR NOT AVBL
ARBOR VITAE    NOT AVBL
EAGLE RIVER    NOT AVBL
LAND O LAKES   NOT AVBL
RHINELANDER    SUNNY     70  49  47 NW9       30.05F
PHILLIPS       NOT AVBL
ANTIGO         NOT AVBL
TOMAHAWK       NOT AVBL
MERRILL        NOT AVBL
$$

WIZ013-073-302000-
NORTHEAST WISCONSIN

CITY           SKY/WX    TMP DP  RH WIND       PRES   REMARKS
IRON MOUNTAIN  MOSUNNY   73  42  32 MISG      30.00S
MARINETTE      PTSUNNY   68  54  60 SE10      30.01S
$$

WIZ017-030-035>037-045-302000-
CENTRAL WISCONSIN

CITY           SKY/WX    TMP DP  RH WIND       PRES   REMARKS
MEDFORD        NOT AVBL
WAUSAU         SUNNY     71  47  42 N9        30.03F
MOSINEE        MOSUNNY   72  45  37 NW9       30.06F
MARSHFIELD     MOSUNNY   74  51  44 N10       30.06F
WISC RAPIDS    MOSUNNY   75  47  36 VRB7      30.06F
STEVENS POINT  NOT AVBL
WAUPACA        NOT AVBL
SHAWANO        MOSUNNY   74  50  42 SW3       30.03S
CLINTONVILLE   MOSUNNY   73  46  38 W6        30.03S
$$

WIZ038-039-048-051-302000-
FOX VALLEY

CITY           SKY/WX    TMP DP  RH WIND       PRES   REMARKS
NWS GREEN BAY  SUNNY     72  52  49 NW5       30.02F
APPLETON       PTSUNNY   70  52  52 NW5       30.05F
OSHKOSH        MOSUNNY   73  51  46 VRB6      30.04S
FOND DU LAC    MOSUNNY   72  54  53 VRB3      30.04F
$$

WIZ022-050-052-302000-
EAST CENTRAL WISCONSIN

CITY           SKY/WX    TMP DP  RH WIND       PRES   REMARKS
STURGEON BAY   SUNNY     66  48  52 N3        30.03F
MANITOWOC      NOT AVBL
SHEBOYGAN      MOSUNNY   73  51  46 NW6       30.03F
$$

LMZ563-521-522-541>543-302000-
LAKESHORE

STATION/POSITION TIME  TEMP    WIND        PRES    VSBY  WAVE
                       AIR SEA DIR/SP/G                  HT/PER
                 (UTC) (F)     (DEG/KT/KT) (MB)    (MI)  (FT/S)
SHEBOYGAN LKSHOR 1800   61     130/  8/  8 1017.5F
KEWAUNEE LKSHORE 1800   59     170/  6/  6 1017.9S
NORTHPORT PIER   1800   61     120/  5/  7 1016.6F
N MID LAKE BUOY  1800   52 55  200/  4/  4 1016.3F         1
S GREEN BAY BUOY 1800   64 67  130/  4     1017.8F
SISTER BAY LKSHO 1800   72     320/  6/  6   N/A
CHAMBERS ISLAND  1800   65      70/  8/  9 1016.3F
MENOMINEE LKSHOR 1800   63     150/ 11/ 12 1017.0F
$$



USA.gov is the U.S. government's official web portal to all federal, state and local government web resources and services.